Weather History for KAEG - October, 2012

Change the Weather History Date:

Thursday, October 4, 2012

  Actual Average Record
Temperature  
Mean Temperature 65 °F -  
Max Temperature 82 °F - - ()
Min Temperature 48 °F - - ()
Growing Degree Days 15 (Base 50)    
Moisture  
Dew Point 22 °F    
Average Humidity 22    
Maximum Humidity 35    
Minimum Humidity 11    
Precipitation  
Precipitation 0.00 in - - ()
Sea Level Pressure  
Sea Level Pressure 30.21 in    
Wind  
Wind Speed 10 mph (West)    
Max Wind Speed 23 mph    
Max Gust Speed 23 mph    
Visibility 10 miles    
Events      
T = Trace of Precipitation, MM = Missing Value Source: NWS Daily Summary

Daily Weather History Graph

Daily Weather History Graph

Search for Another Location

Airport or City:

Trip Planner

Search our weather history database for the weather conditions in past years. The results will help you decide how hot, cold, wet, or windy it might be!

Date:

Astronomy

Oct. 04, 2012 Rise Set
Actual Time 7:04 AM MDT 6:46 PM MDT
Civil Twilight 6:39 AM MDT 7:11 PM MDT
Nautical Twilight 6:10 AM MDT 7:40 PM MDT
Astronomical Twilight 5:40 AM MDT 8:10 PM MDT
Moon 9:34 PM MDT (10/4) 11:14 AM MDT (10/4)
Length of Visible Light 12h 32m
Length of Day
11h 41m
Waning Gibbous, 81% of the Moon is Illuminated
Oct 4
Waning Gibbous
Oct 8
Last Quarter
Oct 15
New
Oct 21
First Quarter
Oct 29
Full

Hourly Weather History & Observations

Time (MDT) Temp. Dew Point Humidity Pressure Visibility Wind Dir Wind Speed Gust Speed Precip Events Conditions
12:15 AM 60.8 °F 17.6 °F 19% 30.17 in 10.0 mi WNW 11.5 mph - N/A   Clear
12:35 AM 62.6 °F 17.6 °F 18% 30.18 in 10.0 mi WNW 10.4 mph - N/A   Clear
12:55 AM 55.4 °F 17.6 °F 23% 30.18 in 10.0 mi West 10.4 mph - N/A   Clear
1:15 AM 57.2 °F 17.6 °F 21% 30.19 in 10.0 mi WSW 12.7 mph - N/A   Clear
1:35 AM 57.2 °F 17.6 °F 21% 30.19 in 10.0 mi WSW 11.5 mph - N/A   Clear
1:55 AM 57.2 °F 19.4 °F 23% 30.20 in 10.0 mi West 13.8 mph - N/A   Clear
2:15 AM 57.2 °F 19.4 °F 23% 30.20 in 10.0 mi West 12.7 mph - N/A   Clear
2:35 AM 55.4 °F 19.4 °F 25% 30.21 in 10.0 mi West 12.7 mph - N/A   Clear
2:55 AM 55.4 °F 19.4 °F 25% 30.20 in 10.0 mi West 12.7 mph - N/A   Clear
3:15 AM 55.4 °F 21.2 °F 26% 30.21 in 10.0 mi WSW 5.8 mph - N/A   Clear
3:35 AM 53.6 °F 21.2 °F 28% 30.21 in 10.0 mi WSW 4.6 mph - N/A   Clear
3:55 AM 53.6 °F 19.4 °F 26% 30.22 in 10.0 mi Calm Calm - N/A   Clear
4:15 AM 57.2 °F 23.0 °F 27% 30.22 in 10.0 mi NW 6.9 mph - N/A   Clear
4:35 AM 53.6 °F 21.2 °F 28% 30.23 in 10.0 mi SSW 5.8 mph - N/A   Clear
4:55 AM 57.2 °F 23.0 °F 27% 30.23 in 10.0 mi SW 6.9 mph - N/A   Clear
5:15 AM 53.6 °F 23.0 °F 30% 30.23 in 10.0 mi West 5.8 mph - N/A   Clear
5:35 AM 53.6 °F 23.0 °F 30% 30.24 in 10.0 mi NNW 4.6 mph - N/A   Clear
5:50 AM 50.0 °F 23.0 °F 35% 30.24 in 10.0 mi NNW 6.9 mph - N/A   Clear
6:50 AM 48.2 °F 21.2 °F 34% 30.25 in 10.0 mi Calm Calm - N/A   Clear
7:50 AM 51.8 °F 21.2 °F 30% 30.27 in 10.0 mi Calm Calm - N/A   Clear
8:50 AM 62.6 °F 24.8 °F 24% 30.28 in 10.0 mi Calm Calm - N/A   Clear
9:50 AM 68.0 °F 24.8 °F 20% 30.29 in 10.0 mi Variable 4.6 mph - N/A   Partly Cloudy
10:50 AM 71.6 °F 26.6 °F 19% 30.29 in 10.0 mi Variable 4.6 mph - N/A   Scattered Clouds
11:50 AM 73.4 °F 28.4 °F 19% 30.27 in 10.0 mi SSW 9.2 mph - N/A   Scattered Clouds
12:50 PM 77.0 °F 26.6 °F 16% 30.25 in 10.0 mi SW 9.2 mph - N/A   Scattered Clouds
1:50 PM 80.6 °F 26.6 °F 14% 30.22 in 10.0 mi SW 17.3 mph - N/A   Scattered Clouds
2:50 PM 80.6 °F 26.6 °F 14% 30.19 in 10.0 mi WSW 15.0 mph - N/A   Scattered Clouds
3:50 PM 82.4 °F 23.0 °F 11% 30.17 in 10.0 mi WSW 23.0 mph - N/A   Scattered Clouds
4:50 PM 82.4 °F 23.0 °F 11% 30.15 in 10.0 mi SW 23.0 mph - N/A   Partly Cloudy
5:50 PM 78.8 °F 24.8 °F 14% 30.14 in 10.0 mi West 12.7 mph 23.0 mph N/A   Scattered Clouds
6:50 PM 75.2 °F 23.0 °F 14% 30.15 in 10.0 mi West 11.5 mph - N/A   Scattered Clouds
7:50 PM 68.0 °F 23.0 °F 18% 30.15 in 10.0 mi West 6.9 mph - N/A   Scattered Clouds
10:15 PM 62.6 °F 24.8 °F 24% 30.15 in 9.0 mi West 15.0 mph - N/A   Clear
10:55 PM 66.2 °F 24.8 °F 21% 30.16 in 10.0 mi West 18.4 mph - N/A   Clear
11:15 PM 66.2 °F 24.8 °F 21% 30.16 in 10.0 mi West 18.4 mph - N/A   Clear
11:35 PM 64.4 °F 24.8 °F 22% 30.16 in 10.0 mi West 19.6 mph - N/A   Clear
11:55 PM 64.4 °F 24.8 °F 22% 30.16 in 10.0 mi West 20.7 mph - N/A   Clear